Regional Weather Roundup
Issued by NWS

Home | Current Version | Previous Version | Graphics & Text | Print | Product List | Glossary On
Versions: 1 2 3 4 5 6 7 8 9 10 11 12 13 14 15 16 17 18 19 20 21 22 23 24 25 26 27 28 29 30 31 32 33 34 35 36 37 38 39 40 41 42 43 44 45 46 47 48 49 50
000
ASUS43 KLMK 041710
RWRKY
KENTUCKY REGIONAL WEATHER ROUNDUP
NATIONAL WEATHER SERVICE LOUISVILLE KY
100 PM EDT SAT JUL 04 2015

NOTE "FAIR" INDICATES FEW OR NO CLOUDS BELOW 12,000 FEET
WITH NO SIGNIFICANT WEATHER AND/OR OBSTRUCTIONS TO VISIBILITY.

KYZ001>023-026-027-061>063-070>075-041800-
WESTERN AND SOUTH CENTRAL KENTUCKY

CITY           SKY/WX    TMP DP  RH WIND       PRES   REMARKS
PADUCAH        CLOUDY    79  68  69 CALM      30.00F
HENDERSON      MOSUNNY   75  64  69 NE3       29.99F
OWENSBORO      PTSUNNY   78  67  68 CALM      30.01S
HOPKINSVILLE   CLOUDY    78  70  77 NW7       29.99F
BOWLING GREEN  MOSUNNY   81  68  64 NW5       30.00F
GLASGOW        CLOUDY    78  68  72 W7        30.01S
$$

KYZ024-025-028>034-038-045-046-053-041800-
NORTH CENTRAL KENTUCKY

CITY           SKY/WX    TMP DP  RH WIND       PRES   REMARKS
LOUISVILLE/SDF PTSUNNY   80  65  59 VRB3      30.01S
LOUISVILLE/LOU CLOUDY    78  65  63 CALM      30.01S
FORT KNOX      MOSUNNY   76  68  74 NE5       30.00S
$$

KYZ035>037-039>044-047>052-055>060-089>105-041800-
NORTHEAST KENTUCKY

CITY           SKY/WX    TMP DP  RH WIND       PRES   REMARKS
LEXINGTON      CLOUDY    76  67  73 NW7       30.03S
COVINGTON      MOSUNNY   78  63  59 VRB5      30.02F
FRANKFORT      CLOUDY    76  66  71 CALM      30.02R
$$

KYZ054-064>069-076>088-106>120-041800-
SOUTHEAST KENTUCKY

CITY           SKY/WX    TMP DP  RH WIND       PRES   REMARKS
JACKSON        CLOUDY    76  67  73 NW7       30.03S
LONDON         CLOUDY    76  65  68 W9        30.04R
SOMERSET       LGT RAIN  72  68  88 CALM      30.04S
MIDDLESBORO    CLOUDY    77  67  72 CALM      30.03F
MONTICELLO     CLOUDY    78  71  79 SW7       30.05F
$$




USA.gov is the U.S. government's official web portal to all federal, state and local government web resources and services.